McCook, NE

12:49 PM CDT on August 18, 2017 (GMT -0500)
McCook Municipal

Weather History for KMCK - November, 2011

Change the Weather History Date:

Monday, November 14, 2011

  Actual Average Record
Temperature  
Mean Temperature 46 °F 39 °F  
Max Temperature 64 °F 53 °F 78 °F (1990)
Min Temperature 27 °F 25 °F -11 °F (1940)
Degree Days  
Heating Degree Days 18    
Moisture  
Dew Point 23 °F    
Average Humidity 46    
Maximum Humidity 79    
Minimum Humidity 14    
Precipitation  
Precipitation 0.00 in 0.03 in 0.08 in (2005)
Month to date precipitation 0.11 0.51  
Year to date precipitation 19.03 21.45  
Sea Level Pressure  
Sea Level Pressure 29.68 in    
Wind  
Wind Speed 12 mph (WSW)    
Max Wind Speed 24 mph    
Max Gust Speed 31 mph    
Visibility 10 miles    
Events      
T = Trace of Precipitation, MM = Missing Value Source: NWS Daily Summary

Daily Weather History Graph

Daily Weather History Graph

Search for Another Location

Airport or City:

Trip Planner

Search our weather history database for the weather conditions in past years. The results will help you decide how hot, cold, wet, or windy it might be!

Date:

Astronomy

Nov. 14, 2011 Rise Set
Actual Time 7:26 AM CST 5:26 PM CST
Civil Twilight 6:57 AM CST 5:55 PM CST
Nautical Twilight 6:24 AM CST 6:28 PM CST
Astronomical Twilight 5:52 AM CST 7:00 PM CST
Moon 8:35 PM CST (11/14) 10:46 AM CST (11/14)
Length of Visible Light 10h 58m
Length of Day
9h 59m
Waning Gibbous, 86% of the Moon is Illuminated
Nov 14
Waning Gibbous
Nov 18
Last Quarter
Nov 25
New
Dec 2
First Quarter
Dec 10
Full

Hourly Weather History & Observations

Time (CST) Temp. Windchill Dew Point Humidity Pressure Visibility Wind Dir Wind Speed Gust Speed Precip Events Conditions
12:53 AM 36.0 °F 29.0 °F 28.0 °F 73% 29.65 in 10.0 mi WNW 9.2 mph - N/A   Clear
1:53 AM 32.0 °F 25.6 °F 26.1 °F 79% 29.65 in 10.0 mi SW 6.9 mph - N/A   Partly Cloudy
2:53 AM 37.9 °F 30.5 °F 27.0 °F 65% 29.64 in 10.0 mi West 11.5 mph - N/A   Clear
3:53 AM 37.4 °F 30.3 °F 24.8 °F 60% 29.63 in 10.0 mi WSW 10.4 mph - N/A   Clear
4:53 AM 39.0 °F 32.3 °F 24.1 °F 55% 29.67 in 10.0 mi WSW 10.4 mph - N/A   Clear
5:53 AM 39.0 °F 32.3 °F 23.0 °F 53% 29.68 in 10.0 mi West 10.4 mph - N/A   Clear
6:53 AM 30.0 °F 22.4 °F 23.0 °F 75% 29.72 in 10.0 mi SW 8.1 mph - N/A   Clear
7:53 AM 30.9 °F 22.8 °F 23.0 °F 72% 29.76 in 10.0 mi SW 9.2 mph - N/A   Clear
8:53 AM 37.9 °F 32.7 °F 26.1 °F 62% 29.78 in 10.0 mi WSW 6.9 mph - N/A   Clear
9:53 AM 48.0 °F - 25.0 °F 41% 29.80 in 10.0 mi WSW 11.5 mph - N/A   Clear
10:53 AM 52.0 °F - 21.9 °F 31% 29.78 in 10.0 mi West 15.0 mph - N/A   Clear
11:53 AM 59.0 °F - 19.0 °F 21% 29.75 in 10.0 mi WNW 16.1 mph 26.5 mph N/A   Clear
12:53 PM 61.0 °F - 17.1 °F 18% 29.70 in 10.0 mi West 17.3 mph - N/A   Clear
1:53 PM 62.1 °F - 14.0 °F 15% 29.67 in 10.0 mi West 24.2 mph 31.1 mph N/A   Clear
2:53 PM 62.1 °F - 12.0 °F 14% 29.64 in 10.0 mi WSW 20.7 mph 28.8 mph N/A   Clear
3:53 PM 63.0 °F - 12.0 °F 14% 29.61 in 10.0 mi WSW 15.0 mph - N/A   Clear
4:53 PM 57.9 °F - 23.0 °F 26% 29.62 in 10.0 mi SSW 16.1 mph 24.2 mph N/A   Clear
5:53 PM 52.0 °F - 23.0 °F 32% 29.63 in 10.0 mi SSW 13.8 mph - N/A   Clear
6:53 PM 50.0 °F - 28.0 °F 43% 29.65 in 10.0 mi SSW 13.8 mph - N/A   Clear
7:53 PM 48.9 °F - 28.9 °F 46% 29.65 in 10.0 mi SSW 15.0 mph - N/A   Clear
8:53 PM 46.0 °F 39.9 °F 28.9 °F 51% 29.66 in 10.0 mi SW 13.8 mph - N/A   Clear
9:53 PM 48.0 °F - 28.9 °F 48% 29.67 in 10.0 mi West 10.4 mph - N/A   Scattered Clouds
10:53 PM 45.0 °F 38.9 °F 28.0 °F 52% 29.66 in 10.0 mi SW 12.7 mph - N/A   Clear
11:53 PM 39.9 °F 32.9 °F 27.0 °F 60% 29.69 in 10.0 mi SW 11.5 mph - N/A   Clear